Buoy 41602

sailwx.info

Track history (hours):
 
Tides and Currents Weather Stations Pressure Air Temp Water Temp Dewpoint Dewpoint Depression Visibility Wind Speed Wind Dir Waves Ship Positions

Drifting buoy 41602

Last reported at 2014-Oct-31 03:30 UTC. Time now 2014-Nov-23 11:14 UTC.
Position N 33°51' W 048°59'.
Warning: this ship's position is 23 days out of date.

Date/timePositionNaut miles runAvg speedWind from/ knotsBaromVisibWave heightAir tempDewpointWater temp
2014-Oct-31 03:30N 33°51' W 048°59'0 0.6
2014-Oct-31 03:00N 33°51' W 048°59'  
2014-Oct-28 18:30N 33°57' W 049°04'0 0.2
2014-Oct-28 18:00N 33°56' W 049°04'0 0.2
2014-Oct-28 16:00N 33°57' W 049°04'0 0.2
2014-Oct-28 14:30N 33°57' W 049°04'0 0.3
2014-Oct-28 14:00N 33°57' W 049°04'2 0.5
2014-Oct-28 10:00N 33°58' W 049°06'0 0.7
2014-Oct-28 09:31N 33°58' W 049°06'0 0.6
2014-Oct-28 09:01N 33°59' W 049°07'3 0.6
2014-Oct-28 04:00N 33°58' W 049°10'2 0.5
2014-Oct-27 23:31N 33°57' W 049°12'0 0.4
2014-Oct-27 23:01N 33°57' W 049°12'0 0.3
2014-Oct-27 22:00N 33°57' W 049°13'0 0.2
2014-Oct-27 20:01N 33°57' W 049°13'0 0.2
2014-Oct-27 17:31N 33°57' W 049°14'0 0.6
2014-Oct-27 17:01N 33°57' W 049°14'5 0.7
2014-Oct-27 10:30N 33°57' W 049°20'0 0.7
2014-Oct-27 10:00N 33°57' W 049°20'0 0.8
2014-Oct-27 09:31N 33°57' W 049°21'0 0.7
2014-Oct-27 09:01N 33°57' W 049°21'5 0.5
2014-Oct-26 22:01N 33°53' W 049°26'1 0.4
2014-Oct-26 20:31N 33°53' W 049°26'0 0.5
2014-Oct-26 20:01N 33°53' W 049°27'6 0.4
2014-Oct-26 06:31N 33°50' W 049°32'0 0.3
2014-Oct-26 06:01N 33°49' W 049°32'0 0.2
2014-Oct-26 04:31N 33°49' W 049°32'0 0.3
2014-Oct-26 04:01N 33°49' W 049°32'1 0.2
2014-Oct-26 01:01N 33°48' W 049°32'4 0.5
2014-Oct-25 17:01N 33°48' W 049°37'1 0.7
2014-Oct-25 16:01N 33°47' W 049°38'2 0.7
2014-Oct-25 13:00N 33°46' W 049°39'0 0.5
2014-Oct-25 12:30N 33°46' W 049°39'0 0.5
2014-Oct-25 12:01N 33°45' W 049°39'0 0.4
2014-Oct-25 11:31N 33°45' W 049°39'0 0.4
2014-Oct-25 11:00N 33°45' W 049°39'0 0.4
2014-Oct-25 10:00N 33°45' W 049°40'0 0.4
2014-Oct-25 09:30N 33°45' W 049°40'0 0.3
2014-Oct-25 09:01N 33°44' W 049°40'1 0.3
2014-Oct-25 04:31N 33°44' W 049°41'0 0.2
2014-Oct-25 04:01N 33°44' W 049°41'2 0.5
2014-Oct-25 00:01N 33°42' W 049°43'0 0.6
2014-Oct-24 23:31N 33°42' W 049°43'0 0.5
2014-Oct-24 23:00N 33°42' W 049°43'3 0.7
2014-Oct-24 18:01N 33°39' W 049°45'0 0.8
2014-Oct-24 17:31N 33°39' W 049°46'0 0.9
2014-Oct-24 17:00N 33°38' W 049°46'3 0.9
2014-Oct-24 13:31N 33°35' W 049°46'0 0.8
2014-Oct-24 13:00N 33°35' W 049°46'0 0.7
2014-Oct-24 12:31N 33°34' W 049°46'0 0.7
2014-Oct-24 12:01N 33°34' W 049°45'1 0.6
2014-Oct-24 11:01N 33°34' W 049°45'1 0.4
2014-Oct-24 08:31N 33°33' W 049°44'0 0.2
2014-Oct-24 08:01N 33°33' W 049°44'0 0.3
2014-Oct-24 07:01N 33°33' W 049°44'0 0.4
2014-Oct-24 06:31N 33°33' W 049°45'1 0.3
2014-Oct-24 05:01N 33°32' W 049°45'0 0.3
2014-Oct-24 04:31N 33°32' W 049°45'2 0.5
2014-Oct-24 00:01N 33°30' W 049°47'2 0.8
2014-Oct-23 22:00N 33°29' W 049°48'2 0.9
2014-Oct-23 20:00N 33°27' W 049°49'1 1.0
2014-Oct-23 19:30N 33°27' W 049°49'0 0.9
2014-Oct-23 19:01N 33°27' W 049°49'0 0.8
2014-Oct-23 18:31N 33°26' W 049°49'0 0.9
2014-Oct-23 18:01N 33°26' W 049°49'2 0.5
2014-Oct-23 13:01N 33°23' W 049°49'1 0.3
2014-Oct-23 10:31N 33°23' W 049°49'0 0.2
2014-Oct-23 10:01N 33°23' W 049°49'0 0.1
2014-Oct-23 06:31N 33°23' W 049°49'0 0.3
2014-Oct-23 06:01N 33°23' W 049°49'0 0.4
2014-Oct-23 05:00N 33°23' W 049°50'4 0.7
2014-Oct-22 23:30N 33°19' W 049°52'0 0.7
2014-Oct-22 23:00N 33°19' W 049°52'1 0.7
2014-Oct-22 22:00N 33°18' W 049°52'4 0.5
2014-Oct-22 15:01N 33°15' W 049°50'1 0.2
2014-Oct-22 10:00N 33°14' W 049°50'0 0.3
2014-Oct-22 08:31N 33°14' W 049°50'0 0.5
2014-Oct-22 08:01N 33°14' W 049°50'0 0.4
2014-Oct-22 07:01N 33°13' W 049°51'1 0.6
2014-Oct-22 05:01N 33°12' W 049°52'1 0.8
2014-Oct-22 03:30N 33°12' W 049°53'0 0.9
2014-Oct-22 03:00N 33°11' W 049°53'3 1.0
2014-Oct-22 00:00N 33°08' W 049°54'1 0.9
2014-Oct-21 23:00N 33°07' W 049°54'0 0.9
2014-Oct-21 22:30N 33°07' W 049°54'3 0.7
2014-Oct-21 18:30N 33°04' W 049°52'1 0.4
2014-Oct-21 15:01N 33°03' W 049°51'0 0.3
2014-Oct-21 14:31N 33°03' W 049°51'0 0.2
2014-Oct-21 12:30N 33°03' W 049°52'0 0.2
2014-Oct-21 12:00N 33°02' W 049°52'1 0.5
2014-Oct-21 09:01N 33°02' W 049°53'0 0.9
2014-Oct-21 08:31N 33°02' W 049°54'0 0.9
2014-Oct-21 08:01N 33°01' W 049°54'0 0.9
2014-Oct-21 07:31N 33°01' W 049°55'0 0.9
2014-Oct-21 07:01N 33°01' W 049°55'1 0.9
2014-Oct-21 05:31N 32°60' W 049°56'0 0.9
2014-Oct-21 05:01N 32°59' W 049°56'1 1.1
2014-Oct-21 04:30N 32°59' W 049°57'0 1.0
2014-Oct-21 04:00N 32°58' W 049°57'0 1.0
2014-Oct-21 03:31N 32°58' W 049°57'  
Track history (hours):
 
Tides and Currents Weather Stations Pressure Air Temp Water Temp Dewpoint Dewpoint Depression Visibility Wind Speed Wind Dir Waves Ship Positions

Drifting buoy 41602

Last reported at 2014-Oct-31 03:30 UTC. Time now 2014-Nov-23 11:14 UTC.
Position N 33°51' W 048°59'.
Warning: this ship's position is 23 days out of date.

Date/timePositionNaut miles runAvg speedWind from/ knotsBaromVisibWave heightAir tempDewpointWater temp
2014-Oct-31 03:30N 33°51' W 048°59'0 0.6
2014-Oct-31 03:00N 33°51' W 048°59'  
2014-Oct-28 18:30N 33°57' W 049°04'0 0.2
2014-Oct-28 18:00N 33°56' W 049°04'0 0.2
2014-Oct-28 16:00N 33°57' W 049°04'0 0.2
2014-Oct-28 14:30N 33°57' W 049°04'0 0.3
2014-Oct-28 14:00N 33°57' W 049°04'2 0.5
2014-Oct-28 10:00N 33°58' W 049°06'0 0.7
2014-Oct-28 09:31N 33°58' W 049°06'0 0.6
2014-Oct-28 09:01N 33°59' W 049°07'3 0.6
2014-Oct-28 04:00N 33°58' W 049°10'2 0.5
2014-Oct-27 23:31N 33°57' W 049°12'0 0.4
2014-Oct-27 23:01N 33°57' W 049°12'0 0.3
2014-Oct-27 22:00N 33°57' W 049°13'0 0.2
2014-Oct-27 20:01N 33°57' W 049°13'0 0.2
2014-Oct-27 17:31N 33°57' W 049°14'0 0.6
2014-Oct-27 17:01N 33°57' W 049°14'5 0.7
2014-Oct-27 10:30N 33°57' W 049°20'0 0.7
2014-Oct-27 10:00N 33°57' W 049°20'0 0.8
2014-Oct-27 09:31N 33°57' W 049°21'0 0.7
2014-Oct-27 09:01N 33°57' W 049°21'5 0.5
2014-Oct-26 22:01N 33°53' W 049°26'1 0.4
2014-Oct-26 20:31N 33°53' W 049°26'0 0.5
2014-Oct-26 20:01N 33°53' W 049°27'6 0.4
2014-Oct-26 06:31N 33°50' W 049°32'0 0.3
2014-Oct-26 06:01N 33°49' W 049°32'0 0.2
2014-Oct-26 04:31N 33°49' W 049°32'0 0.3
2014-Oct-26 04:01N 33°49' W 049°32'1 0.2
2014-Oct-26 01:01N 33°48' W 049°32'4 0.5
2014-Oct-25 17:01N 33°48' W 049°37'1 0.7
2014-Oct-25 16:01N 33°47' W 049°38'2 0.7
2014-Oct-25 13:00N 33°46' W 049°39'0 0.5
2014-Oct-25 12:30N 33°46' W 049°39'0 0.5
2014-Oct-25 12:01N 33°45' W 049°39'0 0.4
2014-Oct-25 11:31N 33°45' W 049°39'0 0.4
2014-Oct-25 11:00N 33°45' W 049°39'0 0.4
2014-Oct-25 10:00N 33°45' W 049°40'0 0.4
2014-Oct-25 09:30N 33°45' W 049°40'0 0.3
2014-Oct-25 09:01N 33°44' W 049°40'1 0.3
2014-Oct-25 04:31N 33°44' W 049°41'0 0.2
2014-Oct-25 04:01N 33°44' W 049°41'2 0.5
2014-Oct-25 00:01N 33°42' W 049°43'0 0.6
2014-Oct-24 23:31N 33°42' W 049°43'0 0.5
2014-Oct-24 23:00N 33°42' W 049°43'3 0.7
2014-Oct-24 18:01N 33°39' W 049°45'0 0.8
2014-Oct-24 17:31N 33°39' W 049°46'0 0.9
2014-Oct-24 17:00N 33°38' W 049°46'3 0.9
2014-Oct-24 13:31N 33°35' W 049°46'0 0.8
2014-Oct-24 13:00N 33°35' W 049°46'0 0.7
2014-Oct-24 12:31N 33°34' W 049°46'0 0.7
2014-Oct-24 12:01N 33°34' W 049°45'1 0.6
2014-Oct-24 11:01N 33°34' W 049°45'1 0.4
2014-Oct-24 08:31N 33°33' W 049°44'0 0.2
2014-Oct-24 08:01N 33°33' W 049°44'0 0.3
2014-Oct-24 07:01N 33°33' W 049°44'0 0.4
2014-Oct-24 06:31N 33°33' W 049°45'1 0.3
2014-Oct-24 05:01N 33°32' W 049°45'0 0.3
2014-Oct-24 04:31N 33°32' W 049°45'2 0.5
2014-Oct-24 00:01N 33°30' W 049°47'2 0.8
2014-Oct-23 22:00N 33°29' W 049°48'2 0.9
2014-Oct-23 20:00N 33°27' W 049°49'1 1.0
2014-Oct-23 19:30N 33°27' W 049°49'0 0.9
2014-Oct-23 19:01N 33°27' W 049°49'0 0.8
2014-Oct-23 18:31N 33°26' W 049°49'0 0.9
2014-Oct-23 18:01N 33°26' W 049°49'2 0.5
2014-Oct-23 13:01N 33°23' W 049°49'1 0.3
2014-Oct-23 10:31N 33°23' W 049°49'0 0.2
2014-Oct-23 10:01N 33°23' W 049°49'0 0.1
2014-Oct-23 06:31N 33°23' W 049°49'0 0.3
2014-Oct-23 06:01N 33°23' W 049°49'0 0.4
2014-Oct-23 05:00N 33°23' W 049°50'4 0.7
2014-Oct-22 23:30N 33°19' W 049°52'0 0.7
2014-Oct-22 23:00N 33°19' W 049°52'1 0.7
2014-Oct-22 22:00N 33°18' W 049°52'4 0.5
2014-Oct-22 15:01N 33°15' W 049°50'1 0.2
2014-Oct-22 10:00N 33°14' W 049°50'0 0.3
2014-Oct-22 08:31N 33°14' W 049°50'0 0.5
2014-Oct-22 08:01N 33°14' W 049°50'0 0.4
2014-Oct-22 07:01N 33°13' W 049°51'1 0.6
2014-Oct-22 05:01N 33°12' W 049°52'1 0.8
2014-Oct-22 03:30N 33°12' W 049°53'0 0.9
2014-Oct-22 03:00N 33°11' W 049°53'3 1.0
2014-Oct-22 00:00N 33°08' W 049°54'1 0.9
2014-Oct-21 23:00N 33°07' W 049°54'0 0.9
2014-Oct-21 22:30N 33°07' W 049°54'3 0.7
2014-Oct-21 18:30N 33°04' W 049°52'1 0.4
2014-Oct-21 15:01N 33°03' W 049°51'0 0.3
2014-Oct-21 14:31N 33°03' W 049°51'0 0.2
2014-Oct-21 12:30N 33°03' W 049°52'0 0.2
2014-Oct-21 12:00N 33°02' W 049°52'1 0.5
2014-Oct-21 09:01N 33°02' W 049°53'0 0.9
2014-Oct-21 08:31N 33°02' W 049°54'0 0.9
2014-Oct-21 08:01N 33°01' W 049°54'0 0.9
2014-Oct-21 07:31N 33°01' W 049°55'0 0.9
2014-Oct-21 07:01N 33°01' W 049°55'1 0.9
2014-Oct-21 05:31N 32°60' W 049°56'0 0.9
2014-Oct-21 05:01N 32°59' W 049°56'1 1.1
2014-Oct-21 04:30N 32°59' W 049°57'0 1.0
2014-Oct-21 04:00N 32°58' W 049°57'0 1.0
2014-Oct-21 03:31N 32°58' W 049°57'  

Dump ship's entire track history